Location: Vanderbilt Planetarium & Observatory
(40.9052°N, 73.3671°W)
Time: 12:28:19
(UTC-04:00)

Daily predictions for brighter satellites

Satellite Brightness Start Highest point End
(mag) Time Altitude Azimuth Time Altitude Azimuth Time Altitude Azimuth
Cosmos 1605 Rocket 4.2 19:46:42 10° SSE 19:52:46 50° E 19:58:46 10° NNE
H-2A R/B 3.7 19:51:27 10° SE 19:54:54 31° ENE 19:58:25 10° N
Meteor 2-14 Rocket 4.5 19:49:25 10° S 19:55:34 81° E 20:01:44 10° N
DELTA 2 R/B (1) 3.8 19:51:37 10° W 19:57:08 64° SSW 20:02:37 10° ESE
Meteor 2-15 Rocket 4.4 19:51:29 10° N 19:57:33 69° E 20:03:34 10° SSE
FENGYUN 3A 3.9 19:53:38 10° SE 19:58:45 49° ENE 20:03:54 10° N
FREGAT/IRIS 4.2 19:56:09 10° S 19:59:08 40° W 20:02:08 10° NNW
HJ-1C 3.8 19:55:54 10° S 19:59:09 67° WSW 20:02:27 10° NNW
Cosmos 1656 3.9 19:53:54 10° S 19:59:13 46° ESE 20:04:30 10° NE
Cosmos 2084 3.9 19:57:28 10° NNW 20:01:22 44° NE 20:05:27 10° ESE
Cosmos 1626 Rocket 4.0 20:00:17 10° N 20:04:29 42° ENE 20:08:35 10° SSE
Cosmos 1892 Rocket 4.2 20:02:08 10° NNW 20:06:34 62° W 20:10:58 10° S
Meteor 1-29 3.6 20:05:20 10° N 20:08:45 61° WNW 20:12:11 10° SSW
Cosmos 1455 Rocket 3.1 20:04:29 10° S 20:08:48 84° W 20:13:12 10° N
Cosmos 1975 3.1 20:06:46 10° SSE 20:10:42 47° E 20:14:40 10° NNE
Cosmos 220 Rocket 3.9 20:08:08 10° NNW 20:12:20 65° ENE 20:16:31 10° SSE
NOSS 3-4 (A) 4.5 20:07:09 10° NW 20:14:02 57° WSW 20:21:19 10° SSE
NOSS 3-4 (C) 4.5 20:07:16 10° NW 20:14:10 58° WSW 20:21:27 10° SSE
Cosmos 2227 Rocket 2.5 20:08:32 10° NNW 20:14:12 73° WSW 20:19:49 10° SSE
Lacrosse 5 rocket 1.7 20:10:54 10° NW 20:14:32 52° SW 20:18:02 10° SSE
Cosmos 1602 Rocket 3.7 20:10:20 10° N 20:14:43 55° E 20:19:02 10° SSE
Tiangong 1 1.1 20:12:33 10° WNW 20:15:40 71° N 20:18:16 14° E
CZ-2D R/B 3.2 20:15:07 10° SSE 20:18:57 68° ENE 20:22:50 10° N
Cosmos 1500 3.7 20:16:51 10° SSE 20:20:18 36° E 20:23:48 10° NNE
Cosmos 2123 Rocket 4.1 20:17:16 10° N 20:23:28 79° W 20:29:38 10° S
Cosmos 1340 4.2 20:25:01 10° NNE 20:27:47 19° ENE 20:29:00 16° E
Cosmos 2297 Rocket 2.4 20:23:26 10° NNW 20:29:07 77° WSW 20:34:45 10° SSE
Cosmos 1459 Rocket 4.4 20:24:23 10° SSE 20:29:54 38° E 20:35:29 10° NNE
Cosmos 2082 4.3 20:25:21 10° NNW 20:30:50 56° WSW 20:36:19 10° S
CZ-4B DEB 3.8 20:28:37 10° S 20:31:48 48° W 20:35:00 10° NNW
Meteor 1-12 Rocket 4.4 20:30:08 10° S 20:35:53 85° W 20:41:47 10° N
Iridium 4 Rocket 3.2 20:35:57 10° N 20:40:56 76° E 20:45:25 10° S
Cosmos 1515 3.6 20:40:54 10° N 20:44:46 90° WNW 20:48:35 10° S
Cosmos 2058 Rocket 4.4 20:45:10 20° E 20:45:25 20° E 20:48:44 10° NE
Cosmos 1606 Rocket 4.3 20:45:32 21° SE 20:47:39 33° E 20:51:36 10° NNE
Envisat 3.5 20:46:26 21° SE 20:49:20 41° ENE 20:54:06 10° N
Cosmos 1939 Rocket 3.4 20:48:13 25° SE 20:50:05 41° ENE 20:54:01 10° N
Lacrosse 5 1.8 20:45:39 10° NW 20:50:44 87° NE 20:53:46 25° SE
Cosmos 1937 Rocket 3.5 20:45:55 10° NNW 20:51:12 70° ENE 20:54:56 20° SSE
Resurs 01 Rocket 4.3 20:49:58 10° SW 20:53:15 20° W 20:56:34 10° NW
Cosmos 2298 Rocket 4.2 20:49:18 10° NNW 20:54:36 72° WSW 20:59:38 11° S
SPOT 5 3.7 20:58:57 27° E 21:00:23 32° ENE 21:04:36 10° N
Cosmos 990 Rocket 4.0 20:55:13 10° NNW 21:00:26 62° ENE 21:03:09 28° SE
Cosmos 972 Rocket 4.5 20:55:20 10° NNW 21:01:26 85° ENE 21:06:57 16° SSE
Cosmos 1743 2.6 20:59:22 17° S 21:02:19 67° E 21:06:13 10° NNE
Cosmos 1697 Rocket 2.9 20:57:35 10° SSW 21:03:13 72° WNW 21:08:53 10° NNE
SJ-11-01 4.2 21:03:16 21° SSE 21:06:26 86° ENE 21:11:08 10° NNW
Cosmos 1066 Rocket 4.4 21:02:01 10° NNW 21:07:43 77° W 21:13:22 11° S
Cosmos 1726 Rocket 3.7 21:09:03 38° SE 21:10:14 49° E 21:14:30 10° NNE
ERS-1 Rocket 2.9 21:08:34 23° SSE 21:11:48 87° ENE 21:16:51 10° NNW
Cosmos 1802 Rocket 4.0 21:05:42 10° S 21:12:03 73° E 21:18:29 10° N
SL-16 R/B 3.0 21:16:08 30° E 21:16:08 30° E 21:20:21 10° NE
H-2A R/B 3.9 21:15:51 13° ENE 21:15:51 13° ENE 21:17:57 10° NNE
ARGOS 4.2 21:16:12 26° E 21:16:57 27° ENE 21:21:27 10° N
RESURS DK-1 2.8 21:13:03 10° NNW 21:17:08 58° WSW 21:18:51 31° S
Cosmos 2016 Rocket 3.9 21:14:02 13° S 21:19:36 70° E 21:25:47 10° NNE
CZ-4 DEB 3.4 21:19:01 39° SSW 21:19:46 51° W 21:22:51 10° NNW
Terra 4.1 21:20:22 11° NE 21:20:22 11° NE 21:21:07 10° NE
Cosmos 1763 Rocket 3.3 21:19:48 10° SSW 21:24:54 89° ESE 21:30:01 10° NNE
Cosmos 1825 Rocket 3.6 21:20:48 10° N 21:25:13 77° W 21:26:56 36° S
MetOp-B 4.3 21:25:59 43° ESE 21:27:11 52° ENE 21:32:23 10° N
Cosmos 1980 Rocket 2.3 21:21:32 10° SSW 21:27:12 75° WNW 21:32:56 10° NNE
OAO 2 Rocket 3.9 21:23:05 10° WSW 21:27:43 38° S 21:28:13 37° S
Cosmos 2173 Rocket 4.3 21:25:19 10° SSW 21:31:40 70° W 21:37:59 10° N
SPOT 1/Viking Rocket 4.1 21:34:23 40° ENE 21:34:42 41° ENE 21:39:33 10° N
Cosmos 2098 Rocket 3.9 21:31:59 24° S 21:36:15 72° E 21:41:52 10° NNE
Cosmos 1953 Rocket 3.6 21:32:22 10° N 21:36:51 79° W 21:37:48 55° S
Cosmos 1842 3.4 21:33:32 10° N 21:36:55 60° NNE 21:36:55 60° NNE
USA 215 4.5 21:34:13 19° ENE 21:37:54 32° NNE 21:43:30 10° NW
H-2A R/B 1.8 21:37:53 81° SSE 21:38:06 90° ENE 21:42:16 10° NNW
Cosmos 1125 Rocket 3.6 21:34:15 10° N 21:39:23 56° ENE 21:39:49 54° E
Nimbus 7 Rocket 4.3 21:35:20 10° NNE 21:41:27 83° ESE 21:45:42 21° SSW
Cosmos 2228 3.8 21:43:11 39° NE 21:43:11 39° NE 21:46:07 10° NNE
SL-19 R/B 4.5 21:37:18 10° NNE 21:41:52 45° ENE 21:41:52 45° ENE
SWAS 4.3 21:44:01 87° WSW 21:44:04 88° WNW 21:48:25 10° NNE
Cosmos 1666 3.2 21:45:23 54° N 21:45:23 54° N 21:48:25 10° N
Cosmos 1864 Rocket 4.3 21:46:03 43° S 21:48:09 77° E 21:54:17 10° N
Cosmos 841 Rocket 3.9 21:44:06 10° SSW 21:49:18 63° WNW 21:54:29 10° NNE
CZ-3C R/B 4.4 21:30:26 10° W 21:50:41 22° SW 21:55:35 15° S
Tiangong 1 3.6 21:49:12 10° W 21:50:13 18° W 21:50:13 18° W
YAOGAN 6 3.6 21:53:36 43° N 21:53:36 43° N 21:56:12 10° N
Cosmos 2263 Rocket 2.9 21:47:40 10° N 21:52:50 37° ENE 21:52:50 37° ENE
Cosmos 1758 Rocket 3.9 21:50:59 10° NNW 21:55:15 56° W 21:55:33 55° WSW
Cosmos 540 Rocket 4.3 21:59:24 38° NE 21:59:24 38° NE 22:02:41 10° NNE
ASTEX 1 3.5 21:52:59 10° N 21:57:59 73° W 21:58:58 56° SW
Tsikada Rocket 4.0 21:54:27 10° N 22:00:54 90° WNW 22:02:25 56° S
Cosmos 2322 Rocket 2.0 22:00:47 74° S 22:01:17 82° ESE 22:06:56 10° NNE
deb Chang Zheng 4 4.5 22:00:04 10° N 22:04:22 49° WNW 22:05:36 37° WSW
Meteor 2-17 Rocket 4.2 22:08:23 73° E 22:08:26 73° E 22:14:29 10° NNE
Meteor 2-5 Rocket 4.3 22:02:47 10° N 22:07:52 46° NE 22:07:52 46° NE
Meteor 1-15 Rocket 4.4 22:08:02 45° SSW 22:09:54 73° W 22:15:46 10° N
MetOp-A 4.5 22:12:56 54° SW 22:13:36 58° W 22:18:54 10° NNW
Cosmos 372 Rocket 4.3 22:09:52 10° NNW 22:14:12 59° NNE 22:14:12 59° NNE
Cosmos 1816 Rocket 4.4 22:11:21 10° N 22:17:45 84° W 22:18:25 72° SSW
Cosmos 1725 Rocket 4.4 22:18:11 34° SW 22:20:49 59° W 22:26:59 10° N
Lacrosse 5 4.2 22:30:21 10° W 22:32:58 15° WSW 22:32:58 15° WSW
SPOT 5 4.5 22:38:12 28° W 22:38:24 28° W 22:42:32 10° NW
CZ-4B R/B 4.5 22:35:55 10° N 22:39:06 40° N 22:39:06 40° N
Cosmos 2233 Rocket 4.2 22:43:02 63° W 22:43:19 63° W 22:49:32 10° N
Cosmos 2278 Rocket 4.5 22:41:46 10° NNE 22:44:03 13° NE 22:44:03 13° NE
H-2A R/B 3.2 22:56:29 37° NNW 22:56:29 37° NNW 22:59:28 10° NNW
Terra 3.5 22:59:15 31° NNW 22:59:15 31° NNW 23:01:43 10° NNW
ARGOS 4.3 22:57:43 37° WNW 22:57:43 37° WNW 23:02:02 10° NNW
SL-16 R/B 3.5 22:57:52 32° W 22:59:24 37° WNW 23:04:40 10° N
Cosmos 1844 Rocket 4.3 22:59:20 10° N 23:02:32 26° NNE 23:02:32 26° NNE
Cosmos 2360 Rocket 3.7 23:14:22 31° NNE 23:14:22 31° NNE 23:17:13 10° NNE
BREEZE-M DEB (TANK) 4.2 22:52:17 10° WNW 23:14:38 79° SW 23:14:38 79° SW
USA 215 3.6 23:21:34 61° NNW 23:21:34 61° NNW 23:26:53 10° NW
Cosmos 2263 Rocket 4.1 23:31:50 10° NW 23:34:33 23° WNW 23:34:33 23° WNW
